W1QED Weather Reports


time (UTC)temp
F
wind
direction
speed
knots
gust
knots
rain 1hr
in
rain 24hr
in
rain mn
in
humidity
%
barometer
mb
20260507161523 58 287 4.3 8.7 0.00 0.30 0.01 37 1007.6
20260507161021 57 290 4.3 8.7 0.00 0.30 0.01 37 1007.8
20260507160521 58 246 3.5 7.8 0.00 0.30 0.01 36 1007.9
20260507160028 58 301 4.3 8.7 0.00 0.30 0.01 36 1007.9
20260507155520 57 221 4.3 8.7 0.00 0.30 0.01 35 1007.9
20260507155017 57 13 3.5 7.8 0.00 0.30 0.01 39 1007.8
20260507154518 57 299 2.6 10.4 0.00 0.30 0.01 39 1007.9
20260507154016 56 290 5.2 10.4 0.00 0.30 0.01 39 1007.8
20260507153515 56 304 3.5 9.6 0.00 0.30 0.01 39 1007.9
20260507153115 56 317 3.5 9.6 0.00 0.30 0.01 39 1007.9
20260507152514 56 283 3.5 9.6 0.00 0.30 0.01 39 1008.1
20260507152013 56 252 4.3 11.3 0.00 0.30 0.01 39 1008.1
20260507151512 56 266 2.6 11.3 0.00 0.30 0.01 39 1008.1
20260507151010 55 276 3.5 9.6 0.00 0.30 0.01 39 1008.1
20260507150511 56 294 5.2 9.6 0.00 0.30 0.01 40 1008.1
20260507150010 57 269 0.9 6.1 0.00 0.30 0.01 42 1008.2
20260507145506 56 200 1.7 6.1 0.00 0.30 0.01 39 1008.2
20260507145004 56 338 0.9 7.0 0.00 0.30 0.01 45 1008.2
20260507144503 56 260 3.5 9.6 0.00 0.30 0.01 43 1008.2
20260507144101 56 17 5.2 11.3 0.00 0.30 0.01 41 1008.2
20260507143558 55 342 1.7 11.3 0.00 0.30 0.01 45 1008.2
20260507143109 55 304 2.6 7.0 0.00 0.30 0.01 48 1008.2
20260507142557 55 288 1.7 7.0 0.00 0.30 0.01 52 1008.2
20260507142053 55 264 2.6 7.8 0.00 0.30 0.01 55 1008.3
20260507141608 54 297 1.7 8.7 0.00 0.30 0.01 55 1008.2
20260507141054 55 251 2.6 8.7 0.00 0.30 0.01 53 1008.1
20260507140551 55 298 1.7 6.1 0.00 0.30 0.01 55 1008.1
20260507140050 54 312 1.7 8.7 0.00 0.30 0.01 58 1008.1
20260507135549 54 256 3.5 8.7 0.00 0.30 0.01 55 1008.0
20260507135047 54 240 1.7 6.1 0.00 0.30 0.01 59 1008.0
20260507134548 53 297 1.7 6.1 0.00 0.30 0.01 56 1008.1
20260507134047 54 263 1.7 5.2 0.00 0.30 0.01 55 1008.0
20260507133545 54 281 1.7 5.2 0.00 0.30 0.01 59 1008.0
20260507133043 54 25 2.6 7.8 0.00 0.30 0.01 59 1007.9
20260507132541 54 306 2.6 7.0 0.00 0.30 0.01 58 1007.9
20260507132040 53 288 3.5 7.0 0.00 0.30 0.01 57 1007.9
20260507131551 53 246 3.5 7.0 0.00 0.30 0.01 58 1008.0
20260507131039 53 281 1.7 7.0 0.00 0.30 0.01 59 1008.1
20260507130540 53 319 2.6 7.0 0.00 0.30 0.01 60 1008.1
20260507130042 53 309 3.5 6.1 0.00 0.30 0.01 58 1008.2
20260507125537 53 233 0.9 4.3 0.00 0.30 0.01 61 1008.1
20260507125036 53 262 1.7 5.2 0.00 0.30 0.01 61 1008.2
20260507124536 52 275 1.7 7.0 0.00 0.30 0.01 62 1008.2
20260507124034 52 303 2.6 7.0 0.00 0.30 0.01 61 1008.2
20260507123534 52 315 3.5 7.8 0.00 0.30 0.01 61 1008.2
20260507123032 51 297 3.5 8.7 0.00 0.30 0.01 61 1008.2
20260507122531 52 313 3.5 8.7 0.00 0.30 0.01 60 1008.2
20260507122031 52 281 3.5 7.8 0.00 0.30 0.01 63 1008.3
20260507121531 51 286 3.5 7.8 0.00 0.30 0.01 62 1008.3
20260507121030 51 290 2.6 6.1 0.00 0.30 0.01 63 1008.3
20260507120529 51 310 1.7 5.2 0.00 0.30 0.01 64 1008.2
20260507120027 50 322 2.6 5.2 0.00 0.30 0.01 65 1008.1
20260507115527 50 314 0.9 5.2 0.00 0.30 0.01 68 1008.1
20260507115024 49 274 1.7 5.2 0.00 0.30 0.01 68 1008.2
20260507114525 48 276 1.7 4.3 0.00 0.30 0.01 67 1008.1
20260507114022 47 328 1.7 4.3 0.00 0.30 0.01 68 1008.0
20260507113524 47 293 1.7 4.3 0.00 0.30 0.01 68 1008.0
20260507113023 47 290 0.9 4.3 0.00 0.30 0.01 68 1007.8
20260507112520 47 317 0.9 4.3 0.00 0.30 0.01 68 1007.9
20260507112019 47 274 1.7 4.3 0.00 0.30 0.01 68 1008.0
20260507111518 47 304 1.7 4.3 0.00 0.30 0.01 68 1008.0
20260507111019 47 284 1.7 4.3 0.00 0.30 0.01 68 1008.0
20260507110517 47 274 1.7 5.2 0.00 0.30 0.01 68 1007.9
20260507110017 47 293 0.9 5.2 0.00 0.30 0.01 69 1007.8
20260507105516 47 254 0.9 3.5 0.00 0.30 0.01 69 1007.8
20260507105015 46 280 0.9 2.6 0.00 0.30 0.01 69 1007.8
20260507104514 46 290 0.9 2.6 0.00 0.30 0.01 69 1007.8
20260507104015 46 276 0.9 3.5 0.00 0.30 0.01 69 1007.9
20260507103513 46 292 1.7 3.5 0.00 0.30 0.01 69 1007.6
20260507103011 46 281 0.9 3.5 0.00 0.30 0.01 69 1007.5
20260507102511 46 292 0.9 3.5 0.00 0.30 0.01 69 1007.3
20260507102010 46 311 0.9 3.5 0.00 0.30 0.01 69 1007.2
20260507101510 46 285 1.7 3.5 0.00 0.30 0.01 70 1007.3
20260507101108 46 295 0.0 2.6 0.00 0.30 0.01 70 1007.4
20260507100508 46 274 0.9 2.6 0.00 0.30 0.01 70 1007.3
20260507100008 46 323 0.9 3.5 0.00 0.30 0.01 70 1007.4
20260507095507 46 336 0.9 3.5 0.00 0.30 0.01 70 1007.2
20260507095008 46 299 0.9 2.6 0.00 0.30 0.01 70 1007.5
20260507094505 46 316 0.9 5.2 0.00 0.30 0.01 70 1007.3
20260507094006 46 314 1.7 5.2 0.00 0.30 0.01 70 1007.3
20260507093503 46 306 0.9 2.6 0.00 0.30 0.01 70 1007.3
20260507093002 46 325 0.9 2.6 0.00 0.30 0.01 71 1007.4
20260507092501 46 296 0.0 2.6 0.00 0.30 0.01 71 1007.7
20260507092001 46 300 0.0 1.7 0.00 0.30 0.01 71 1007.6
20260507091600 46 297 0.0 0.9 0.00 0.30 0.01 71 1007.7
20260507091102 46 297 0.0 0.9 0.00 0.30 0.01 71 1007.8
20260507090558 46 297 0.0 0.9 0.00 0.30 0.01 71 1007.9
20260507085558 46 302 0.9 1.7 0.00 0.30 0.01 71 1007.8
20260507085056 46 266 0.0 2.6 0.00 0.30 0.01 71 1007.9
20260507084558 46 278 0.0 2.6 0.00 0.30 0.01 71 1008.1
20260507084054 46 263 0.0 3.5 0.00 0.30 0.01 71 1007.9
20260507083556 46 300 0.9 3.5 0.00 0.30 0.01 70 1007.7
20260507083054 46 302 0.9 1.7 0.00 0.30 0.01 70 1007.9
20260507082553 46 295 0.0 1.7 0.00 0.30 0.01 70 1008.0
20260507082051 47 318 0.0 2.6 0.00 0.30 0.01 70 1007.4
20260507081555 47 280 0.0 2.6 0.00 0.30 0.01 70 1007.5
20260507081050 47 275 0.0 2.6 0.00 0.30 0.01 69 1007.5
20260507080550 47 284 0.0 3.5 0.00 0.30 0.01 69 1007.5
20260507080056 47 297 0.9 4.3 0.00 0.30 0.01 69 1007.7
20260507075547 47 290 1.7 4.3 0.00 0.30 0.01 69 1007.6
20260507075045 47 289 0.9 5.2 0.00 0.30 0.01 68 1007.2
20260507074546 47 284 1.7 5.2 0.00 0.30 0.01 67 1007.2
20260507074043 47 304 0.9 4.3 0.00 0.30 0.01 67 1007.0
20260507073544 48 317 0.9 3.5 0.00 0.30 0.01 67 1007.2
20260507073041 48 307 1.7 4.3 0.00 0.30 0.01 67 1007.2
20260507072541 48 306 1.7 5.2 0.00 0.30 0.01 67 1007.3
20260507072040 48 271 0.9 5.2 0.00 0.30 0.01 67 1007.7
20260507071538 48 278 1.7 5.2 0.00 0.30 0.01 67 1007.3
20260507071037 48 295 1.7 5.2 0.00 0.30 0.01 67 1007.0
20260507070536 48 299 1.7 5.2 0.00 0.30 0.01 67 1007.0
20260507070041 48 310 1.7 3.5 0.00 0.30 0.01 67 1007.0
20260507065537 48 282 0.9 4.3 0.00 0.30 0.01 67 1006.9
20260507065032 48 287 0.9 6.1 0.00 0.30 0.01 67 1006.8
20260507064558 48 308 0.9 7.0 0.00 0.30 0.01 68 1006.8
20260507064030 48 296 0.9 5.2 0.00 0.30 0.01 68 1006.6
20260507063529 48 288 1.7 4.3 0.00 0.30 0.01 68 1006.7
20260507063033 48 281 0.9 4.3 0.00 0.30 0.01 68 1006.4
20260507062530 48 298 0.9 5.2 0.00 0.30 0.01 69 1006.7
20260507062025 48 295 1.7 5.2 0.00 0.30 0.01 70 1006.9
20260507061524 48 236 0.0 2.6 0.00 0.30 0.01 70 1007.0
20260507061022 49 250 0.0 1.7 0.00 0.30 0.01 70 1006.9
20260507060521 49 244 0.0 1.7 0.00 0.30 0.01 70 1006.8
20260507060021 49 295 0.0 0.9 0.00 0.30 0.01 70 1006.9
20260507055519 49 295 0.0 0.9 0.00 0.30 0.01 69 1007.0
20260507055018 49 295 0.0 2.6 0.00 0.30 0.01 69 1006.9
20260507054517 49 295 0.0 2.6 0.00 0.30 0.01 69 1007.0
20260507054016 49 319 0.0 2.6 0.00 0.30 0.01 69 1006.9
20260507053515 49 281 0.9 2.6 0.00 0.30 0.01 69 1007.1
20260507053015 49 321 0.9 3.5 0.00 0.30 0.01 69 1007.4
20260507052513 50 304 1.7 3.5 0.00 0.30 0.01 69 1007.4
20260507052012 50 291 0.9 5.2 0.00 0.30 0.01 70 1007.5
20260507051511 50 293 1.7 5.2 0.00 0.30 0.01 70 1007.5
20260507051009 50 285 0.0 2.6 0.01 0.30 0.01 70 1007.5
20260507050509 50 288 0.0 3.5 0.01 0.30 0.01 69 1007.2
20260507050015 50 289 0.9 6.1 0.01 0.30 0.01 69 1007.1
20260507045507 50 295 1.7 7.0 0.01 0.30 0.01 69 1007.3
20260507045004 50 257 2.6 7.0 0.01 0.30 0.01 70 1007.3
20260507044503 51 302 0.9 3.5 0.01 0.30 0.01 71 1007.2
20260507044001 51 277 0.9 2.6 0.01 0.30 0.01 71 1007.2
20260507043600 51 276 0.0 2.6 0.01 0.30 0.01 71 1007.2
20260507043059 51 328 0.0 2.6 0.01 0.30 0.01 71 1007.0
20260507042559 51 281 0.0 1.7 0.02 0.30 0.01 71 1006.9
20260507042057 52 313 0.0 2.6 0.02 0.30 0.01 71 1007.0
20260507041556 52 316 0.9 2.6 0.02 0.30 0.01 71 1007.1
20260507041054 52 298 0.0 4.3 0.01 0.28 0.00 70 1007.0
20260507040554 52 290 1.7 4.3 0.01 0.28 0.00 70 1006.8
20260507040052 53 290 1.7 2.6 0.01 0.28 0.00 70 1006.9
20260507035550 53 228 0.0 3.5 0.01 0.28 0.28 70 1007.1
20260507035049 53 295 0.9 5.2 0.01 0.28 0.28 71 1007.0
20260507034547 53 317 1.7 5.2 0.01 0.28 0.28 71 1006.9
20260507034045 54 313 0.9 4.3 0.01 0.28 0.28 72 1006.8
20260507033544 54 287 0.0 2.6 0.01 0.28 0.28 72 1006.8
20260507033043 55 282 0.0 2.6 0.01 0.28 0.28 71 1006.7
20260507032544 55 274 0.0 2.6 0.00 0.28 0.28 71 1006.9
20260507032042 55 280 0.0 2.6 0.00 0.28 0.28 71 1006.6
20260507031540 55 277 0.0 1.7 0.00 0.28 0.28 71 1006.5
20260507031039 55 280 0.0 2.6 0.00 0.28 0.28 71 1006.5
20260507030538 55 268 0.9 3.5 0.00 0.28 0.28 71 1006.3
20260507030038 56 290 0.9 5.2 0.00 0.28 0.28 71 1006.1
20260507025537 56 290 0.9 6.1 0.00 0.28 0.28 72 1006.2
20260507025035 56 291 1.7 4.3 0.00 0.28 0.28 73 1006.0
20260507024533 56 281 0.9 4.3 0.00 0.28 0.28 73 1006.0
20260507024030 57 218 0.0 3.5 0.00 0.28 0.28 73 1006.0
20260507023529 57 231 0.9 4.3 0.00 0.28 0.28 73 1006.1
20260507023028 57 233 0.9 4.3 0.00 0.28 0.28 73 1006.1
20260507022526 58 233 0.9 6.1 0.00 0.28 0.28 73 1006.1
20260507022025 58 248 2.6 7.0 0.00 0.28 0.28 74 1006.1
20260507021523 58 231 1.7 7.0 0.00 0.28 0.28 75 1006.0
20260507021024 59 252 0.9 7.0 0.00 0.28 0.28 76 1006.1
20260507020523 59 257 2.6 9.6 0.00 0.28 0.28 77 1005.9
20260507020022 59 248 1.7 9.6 0.00 0.28 0.28 77 1005.8
20260507015523 59 259 5.2 8.7 0.00 0.28 0.28 77 1005.7
20260507015022 59 228 2.6 6.1 0.00 0.28 0.28 77 1005.5
20260507014520 59 243 3.5 7.0 0.00 0.28 0.28 77 1005.6
20260507014020 59 233 3.5 7.0 0.00 0.28 0.28 77 1005.6
20260507013519 59 205 3.5 7.0 0.00 0.28 0.28 77 1005.7
20260507013018 59 217 3.5 6.1 0.00 0.28 0.28 77 1005.5
20260507012518 59 223 2.6 5.2 0.00 0.28 0.28 77 1005.5
20260507012018 59 211 2.6 7.0 0.00 0.28 0.28 77 1005.5
20260507011517 59 218 4.3 7.0 0.00 0.28 0.28 78 1005.4
20260507011015 59 181 3.5 7.0 0.00 0.28 0.28 78 1005.5
20260507010514 59 232 2.6 7.0 0.00 0.28 0.28 78 1005.6
20260507010018 59 236 3.5 9.6 0.00 0.28 0.28 78 1005.5
20260507005513 59 240 4.3 9.6 0.00 0.28 0.28 78 1005.5
20260507005013 59 146 3.5 9.6 0.00 0.28 0.28 78 1005.5
20260507004513 59 238 3.5 9.6 0.00 0.28 0.28 79 1005.4
20260507004011 59 224 4.3 9.6 0.00 0.28 0.28 79 1005.4
20260507003510 59 217 4.3 8.7 0.01 0.28 0.28 80 1005.3
20260507003009 59 212 3.5 7.0 0.01 0.28 0.28 80 1005.2
20260507002508 59 237 3.5 7.0 0.01 0.28 0.28 80 1005.2
20260507002007 59 251 3.5 7.0 0.01 0.28 0.28 80 1005.2
20260507001511 58 219 3.5 5.2 0.02 0.28 0.28 80 1005.3
20260507001006 58 198 1.7 5.2 0.02 0.28 0.28 80 1005.1
20260507000606 58 227 1.7 5.2 0.02 0.28 0.28 80 1005.1
20260507000004 58 150 2.6 4.3 0.03 0.28 0.28 80 1005.1
20260506235503 58 127 1.7 4.3 0.03 0.28 0.28 80 1005.0
20260506235004 58 213 1.7 7.0 0.04 0.28 0.28 80 1005.2
20260506234502 58 226 2.6 7.0 0.04 0.28 0.28 80 1005.2
20260506234002 58 207 2.6 7.0 0.05 0.28 0.28 80 1005.0
20260506233500 58 196 2.6 6.1 0.04 0.27 0.27 80 1004.9
20260506233000 58 227 2.6 6.1 0.05 0.27 0.27 80 1005.0
20260506232600 58 200 1.7 6.1 0.05 0.27 0.27 80 1004.9
20260506232059 58 165 1.7 6.1 0.06 0.27 0.27 80 1004.8
20260506231610 58 215 2.6 6.1 0.05 0.26 0.26 80 1005.0
20260506231059 58 185 1.7 4.3 0.06 0.26 0.26 80 1004.9
20260506230557 58 156 1.7 6.1 0.06 0.26 0.26 80 1004.9
20260506230111 58 217 2.6 6.1 0.05 0.25 0.25 80 1004.9
20260506225555 58 229 2.6 5.2 0.06 0.25 0.25 80 1005.0
20260506225054 58 224 1.7 6.1 0.05 0.24 0.24 80 1005.0
20260506224553 58 214 2.6 6.1 0.05 0.24 0.24 80 1005.1
20260506224053 58 202 2.6 5.2 0.05 0.23 0.23 79 1005.1
20260506223551 58 223 2.6 7.0 0.05 0.23 0.23 79 1005.1
20260506223050 58 226 2.6 7.0 0.04 0.22 0.22 79 1005.0
20260506222551 58 193 2.6 7.0 0.04 0.22 0.22 79 1005.0
20260506222048 58 243 2.6 7.8 0.04 0.21 0.21 78 1005.1
20260506221607 58 212 2.6 7.8 0.04 0.21 0.21 78 1005.0
20260506221047 58 205 3.5 7.0 0.04 0.20 0.20 78 1005.1
20260506220549 58 200 2.6 7.0 0.04 0.20 0.20 78 1005.1
20260506220101 58 182 2.6 7.0 0.04 0.20 0.20 78 1005.2
20260506215544 58 170 3.5 7.8 0.04 0.19 0.19 77 1005.4
20260506215043 58 215 2.6 7.8 0.04 0.19 0.19 77 1005.2
20260506214547 58 227 1.7 7.0 0.05 0.19 0.19 77 1005.2
20260506214041 58 193 1.7 7.8 0.04 0.18 0.18 76 1005.3
20260506213540 59 222 4.3 9.6 0.05 0.18 0.18 76 1005.3
20260506213044 59 233 3.5 9.6 0.05 0.18 0.18 76 1005.4
20260506212537 59 152 2.6 10.4 0.06 0.18 0.18 76 1005.4
20260506212036 59 221 3.5 10.4 0.05 0.17 0.17 76 1005.5
20260506211536 59 207 4.3 7.8 0.06 0.17 0.17 76 1005.4
20260506211033 59 215 4.3 7.0 0.06 0.16 0.16 76 1005.5
20260506210532 59 152 2.6 6.1 0.06 0.16 0.16 76 1005.4
20260506210033 59 220 1.7 6.1 0.07 0.16 0.16 75 1005.6
20260506205530 59 203 1.7 5.2 0.06 0.15 0.15 74 1005.5
20260506205026 59 205 1.7 7.0 0.07 0.15 0.15 74 1005.6
20260506204527 59 154 3.5 9.6 0.06 0.14 0.14 73 1005.7
20260506204022 59 211 2.6 10.4 0.07 0.14 0.14 73 1005.7
20260506203524 59 174 4.3 10.4 0.06 0.13 0.13 73 1005.7
20260506203019 59 174 4.3 10.4 0.06 0.13 0.13 73 1005.8
20260506202516 59 191 4.3 10.4 0.05 0.12 0.12 73 1005.9
20260506202015 59 216 7.0 12.2 0.05 0.12 0.12 73 1006.0
20260506201526 60 166 5.2 12.2 0.04 0.11 0.11 73 1006.0
20260506201011 60 203 4.3 10.4 0.03 0.10 0.10 73 1006.0
20260506200510 60 230 3.5 7.8 0.03 0.10 0.10 72 1005.9
20260506200008 60 221 2.6 6.1 0.03 0.09 0.09 72 1006.0
20260506195508 60 136 2.6 7.0 0.03 0.09 0.09 72 1006.0
20260506195006 60 193 3.5 7.0 0.02 0.08 0.08 71 1006.1
20260506194506 61 202 2.6 8.7 0.01 0.07 0.07 71 1006.0
20260506194003 61 205 3.5 7.8 0.01 0.07 0.07 71 1006.1
20260506193503 61 201 3.5 7.0 0.01 0.07 0.07 71 1006.2
20260506193002 61 216 4.3 8.7 0.02 0.07 0.07 71 1006.1
20260506192504 61 174 2.6 8.7 0.02 0.07 0.07 71 1006.2
20260506192100 61 174 3.5 8.7 0.03 0.07 0.07 70 1006.2
20260506191622 61 218 3.5 8.7 0.03 0.07 0.07 70 1006.1
20260506191058 61 260 5.2 9.6 0.04 0.07 0.07 70 1006.1
20260506190558 61 199 5.2 12.2 0.04 0.07 0.07 70 1006.3
20260506190057 61 255 7.0 12.2 0.04 0.06 0.06 70 1006.2
20260506185556 61 146 5.2 9.6 0.04 0.06 0.06 70 1006.1
20260506185054 61 191 1.7 6.1 0.05 0.06 0.06 70 1006.0
20260506184605 61 198 2.6 7.0 0.05 0.06 0.06 69 1006.2
20260506184053 61 196 3.5 11.3 0.06 0.06 0.06 69 1006.2
20260506183551 61 245 4.3 11.3 0.06 0.06 0.06 69 1006.4
20260506183050 62 207 3.5 9.6 0.05 0.05 0.05 69 1006.4
20260506182548 62 230 4.3 9.6 0.05 0.05 0.05 69 1006.7
20260506182048 62 199 4.3 7.8 0.04 0.04 0.04 68 1006.7
20260506181547 62 240 3.5 9.6 0.04 0.04 0.04 67 1006.6
20260506181046 62 219 4.3 11.3 0.03 0.03 0.03 66 1006.9
20260506180546 63 209 5.2 12.2 0.03 0.03 0.03 66 1006.9
20260506180044 63 201 6.1 12.2 0.02 0.02 0.02 65 1006.9
20260506175544 64 212 7.0 13.0 0.02 0.02 0.02 63 1007.1
20260506175043 64 189 7.8 13.9 0.01 0.01 0.01 61 1007.0
20260506174541 65 237 5.2 13.9 0.00 0.00 0.00 60 1007.0
20260506174041 66 208 7.8 12.2 0.00 0.00 0.00 57 1007.1
20260506173540 67 260 7.8 12.2 0.00 0.00 0.00 55 1006.7
20260506173045 68 247 6.1 13.0 0.00 0.00 0.00 53 1006.8
20260506172539 68 264 6.1 11.3 0.00 0.00 0.00 52 1006.8
20260506172038 68 231 7.0 11.3 0.00 0.00 0.00 51 1006.7
20260506171552 68 247 6.1 13.0 0.00 0.00 0.00 51 1006.6
20260506171036 68 256 4.3 16.5 0.00 0.00 0.00 51 1006.6
20260506170536 68 220 7.8 16.5 0.00 0.00 0.00 50 1006.7
20260506170038 68 203 7.0 14.8 0.00 0.00 0.00 50 1006.6
20260506165535 68 235 8.7 13.0 0.00 0.00 0.00 49 1006.6
20260506165033 69 266 6.1 13.0 0.00 0.00 0.00 50 1006.7
20260506164530 69 245 6.1 13.9 0.00 0.00 0.00 49 1006.7
20260506164030 69 193 5.2 14.8 0.00 0.00 0.00 49 1006.8
20260506163529 69 240 6.1 10.4 0.00 0.00 0.00 49 1006.8
20260506163034 69 233 3.5 10.4 0.00 0.00 0.00 49 1006.9
20260506162528 69 215 6.1 10.4 0.00 0.00 0.00 49 1007.0
20260506162025 69 260 6.1 17.4 0.00 0.00 0.00 49 1007.0